Location: Melizzano
(41.1500°N, 14.5000°E)
Time: 22:12:54
(UTC+00:00)

H-2A R/B - Pass Details

Date: 11 May 2021
Orbit: 573 x 598 km, 98.2° (Epoch: 23 June)

Event Time Altitude Azimuth Distance (km) Brightness Sun altitude
Rises 21:12:31 0° 8° (N) 2,842 7.8 -25.9°
Reaches altitude 10° 21:14:44 10° 4° (N) 1,932 6.8 -26.0°
Enters shadow 21:18:39 54° 297° (WNW) 724 4.0 -26.4°
